[[{"header":{"parameterUnit":"m.s-1","parameterCategory":1,"la1":30.2991,"la2":30.254,"lo1":-89.0895,"lo2":-89.0444,"dy":0.0017,"dx":0.0017,"nx":28,"ny":28,"refTime":"2025-07-18T21:00:00:Z","depth":0,"parameterNumber":2,"parameterNumberName":"U-component_of_WINDS"},"data":[0,0,0,0,0,0,0,0,0,0,0,0,0,0,0,0,0,0,0,0,0,0,0,0,0,0,0,0,0,0,0,0,0,0,0,0,0,0,0,0,0,0,0,0,0,0,0,0,0,0,0,0,0,0,0,0,0,0,1.527,1.5272,0,1.542,1.5422,1.5424,1.5497,1.5497,1.5497,1.5497,1.5653,1.5657,1.5661,0,0,0,0,0,0,0,0,0,0,0,0,0,1.5048,1.5052,1.527,1.5272,1.5274,1.542,1.5422,1.5424,1.5497,1.5497,1.5497,1.5497,1.5652,1.5657,1.5662,0,0,0,0,0,0,0,0,0,0,0,0,0,1.5166,1.5053,1.527,1.5328,1.5335,1.542,1.5422,1.5425,1.5497,1.5497,1.5497,1.5497,1.565,1.5656,1.5663,1.5702,0,0,1.5682,1.5684,0,0,0,0,0,0,0,0,1.5159,1.5174,1.5317,1.5324,1.5332,1.544,1.5401,1.5518,1.5497,1.5436,1.5497,1.5497,1.5582,1.5594,1.5623,1.5709,1.5716,1.5682,1.5686,1.5689,1.569,0,0,0,0,0,0,0,1.5151,1.5168,1.533,1.5319,1.5328,1.5347,1.5364,1.5424,1.5507,1.5441,1.5447,1.5463,1.5586,1.5616,1.5627,1.5718,1.5682,1.5688,1.5691,1.5694,1.5845,1.5845,0,0,0,0,0,0,1.5133,1.5161,1.5325,1.5334,1.5244,1.5351,1.537,1.5405,1.5507,1.5522,1.5463,1.5466,1.5606,1.5619,1.5633,1.5686,1.5689,1.5695,1.5698,1.5844,1.5845,1.5845,0,0,0,0,0,0,1.5128,1.5147,1.5319,1.5249,1.5272,1.5355,1.5394,1.5408,1.5438,1.5524,1.5539,1.5478,1.5606,1.5624,1.5684,1.5692,1.5697,1.5703,1.5844,1.5844,1.5845,1.5791,0,0,0,0,0,0,1.5122,1.5145,1.516,1.5249,1.5276,1.5367,1.5395,1.5411,1.5449,1.5454,1.5542,1.5557,1.5608,1.5674,1.569,1.5701,1.5708,1.5844,1.5844,1.5845,1.5792,1.579,1.5787,0,0,0,0,0,1.5113,1.514,1.5161,1.518,1.5297,1.5367,1.5383,1.544,1.5449,1.5465,1.552,1.5554,1.5688,1.568,1.5698,1.5711,1.5843,1.5844,1.5845,1.5794,1.579,1.5787,0,0,0,0,0,0,1.5051,1.5152,1.5177,1.5233,1.529,1.5379,1.5402,1.5434,1.5492,1.5494,1.5564,1.5583,1.5637,1.568,1.5669,1.5754,1.5769,1.5773,1.5724,1.5721,1.5719,1.5707,1.5713,0,0,0,0,0,1.5043,1.5091,1.5178,1.5219,1.5246,1.5319,1.5352,1.5391,1.5454,1.5479,1.5539,1.5599,1.5655,1.5691,1.5747,1.5799,1.5819,1.5817,1.5814,1.5811,1.5814,1.5845,1.5845,1.5847,1.5847,1.5847,0,0,1.5029,1.509,1.5117,1.5208,1.5257,1.5306,1.5339,1.539,1.5427,1.5487,1.5547,1.5593,1.5665,1.5721,1.5749,1.5759,1.5818,1.5812,1.5809,1.5814,1.5845,1.5845,1.5845,1.5847,1.5847,1.5847,0,0,1.5027,1.5078,1.5118,1.5167,1.5241,1.5289,1.5298,1.5382,1.5414,1.5475,1.5522,1.5567,1.5662,1.5712,1.5749,1.5765,1.5799,1.5782,1.5768,1.5797,1.5797,1.5797,1.5803,1.5804,1.5785,1.5784,1.5784,0,1.5,1.5075,1.5134,1.5182,1.5221,1.5277,1.5318,1.5362,1.5451,1.5477,1.5486,1.5606,1.5659,1.5727,1.5731,1.576,1.5773,1.5772,1.5792,1.5793,1.5794,1.58,1.5802,1.5782,1.5782,1.5782,1.5783,0,1.5038,1.5089,1.5112,1.5195,1.5237,1.5281,1.5347,1.5382,1.5417,1.5464,1.5526,1.5591,1.5661,1.568,1.5715,1.5754,1.5757,1.5778,1.5795,1.579,1.5797,1.58,1.5778,1.5779,1.578,1.5781,0,0,1.5002,1.5117,1.5124,1.5163,1.5248,1.5289,1.5336,1.5404,1.5432,1.5492,1.5533,1.5611,1.5631,1.5673,1.5715,1.574,1.5749,1.5758,1.5761,1.5755,1.5795,1.5779,1.5781,1.5771,1.5772,1.5772,1.5789,0,1.5012,1.5097,1.5152,1.5216,1.5264,1.5317,1.5358,1.5415,1.546,1.5508,1.5558,1.5612,1.5634,1.566,1.5687,1.5742,1.5758,1.5741,1.5811,1.5812,1.5791,1.5785,1.5768,1.5781,1.5792,1.5793,1.5793,0,1.5036,1.5093,1.5161,1.5241,1.5263,1.5298,1.5365,1.541,1.5476,1.5507,1.5553,1.5595,1.5647,1.5658,1.5731,1.5718,1.575,1.578,1.5782,1.5792,1.5803,1.5794,1.5786,1.5788,1.5798,1.5798,1.5798,0,1.5003,1.5097,1.5149,1.5181,1.5275,1.5299,1.534,1.5405,1.5443,1.5501,1.5526,1.5589,1.5624,1.5673,1.5731,1.5734,1.5797,1.5814,1.5825,1.5823,1.5836,1.5835,1.5834,1.5856,1.5856,1.5856,1.5856,0,1.5009,1.5049,1.5136,1.5168,1.5214,1.5277,1.5321,1.5366,1.5424,1.5467,1.5517,1.5556,1.563,1.5678,1.5724,1.5777,1.5792,1.5819,1.5831,1.5815,1.5811,1.5837,1.5838,1.5856,1.5856,1.5856,1.5856,0,1.498,1.504,1.5101,1.5185,1.5207,1.5238,1.531,1.5344,1.5391,1.5444,1.5461,1.5535,1.5594,1.5656,1.5737,1.5768,1.5819,1.5836,1.5797,1.5803,1.5811,1.581,1.5827,1.5833,1.585,1.5849,1.5849,0,1.498,1.5012,1.5099,1.5131,1.517,1.5221,1.5259,1.5321,1.5359,1.5436,1.546,1.5523,1.5577,1.5669,1.5731,1.5793,1.5811,1.5813,1.5821,1.5804,1.5812,1.5809,1.5813,1.581,1.581,1.581,1.5809,0,1.4974,1.5002,1.5054,1.5117,1.516,1.5213,1.5268,1.5291,1.5364,1.5404,1.5465,1.5506,1.5588,1.565,1.5719,1.5762,1.5798,1.5806,1.5812,1.5796,1.5772,1.5785,1.579,1.5806,1.5806,1.5806,1.5806,1.5806,1.496,1.4991,1.5057,1.5113,1.5161,1.521,1.5246,1.5297,1.5349,1.542,1.5454,1.5514,1.558,1.5676,1.5718,1.5767,1.5778,1.5786,1.5788,1.579,1.5786,1.5764,1.578,1.578,1.578,1.578,1.5781,0,1.4957,1.5002,1.5053,1.5127,1.5172,1.5201,1.5262,1.5298,1.535,1.5408,1.5459,1.5529,1.5589,1.5655,1.5719,1.5746,1.5764,1.5761,1.5759,1.5769,1.5772,1.5761,1.5745,1.5745,1.5745,1.5745,1.5745,1.5745,1.4961,1.5014,1.5049,1.5126,1.5171,1.523,1.5263,1.5309,1.5355,1.5431,1.548,1.5523,1.5584,1.5653,1.5709,1.5727,1.5749,1.5741,1.5763,1.5766,1.5769,1.5771,1.5761,1.5745,1.5745,1.5756,1.5756,1.5756]},{"header":{"parameterUnit":"m.s-1","parameterCategory":1,"la1":30.2991,"la2":30.254,"lo1":-89.0895,"lo2":-89.0444,"dy":0.0017,"dx":0.0017,"nx":28,"ny":28,"refTime":"2025-07-18T21:00:00:Z","depth":0,"parameterNumber":3,"parameterNumberName":"V-component_of_WINDS"},"data":[0,0,0,0,0,0,0,0,0,0,0,0,0,0,0,0,0,0,0,0,0,0,0,0,0,0,0,0,0,0,0,0,0,0,0,0,0,0,0,0,0,0,0,0,0,0,0,0,0,0,0,0,0,0,0,0,0,0,3.8565,3.8564,0,3.8555,3.8555,3.8555,3.854,3.854,3.854,3.854,3.8528,3.8528,3.8528,0,0,0,0,0,0,0,0,0,0,0,0,0,3.8569,3.8569,3.8565,3.8564,3.8564,3.8555,3.8555,3.8555,3.854,3.854,3.854,3.8539,3.8528,3.8528,3.8528,0,0,0,0,0,0,0,0,0,0,0,0,0,3.8564,3.8569,3.8565,3.8556,3.8555,3.8555,3.8555,3.8555,3.854,3.854,3.854,3.8539,3.8528,3.8528,3.8528,3.8536,0,0,3.8528,3.8528,0,0,0,0,0,0,0,0,3.8564,3.8564,3.8557,3.8557,3.8556,3.8549,3.8553,3.8549,3.8541,3.8546,3.854,3.8539,3.8535,3.8535,3.8534,3.8535,3.8535,3.8528,3.8528,3.8528,3.8528,0,0,0,0,0,0,0,3.8565,3.8564,3.8561,3.8557,3.8556,3.8552,3.8551,3.8552,3.8543,3.8545,3.8544,3.8544,3.8535,3.8534,3.8533,3.8535,3.8528,3.8528,3.8528,3.8528,3.8543,3.8543,0,0,0,0,0,0,3.8566,3.8564,3.8561,3.8561,3.8559,3.8553,3.8551,3.8551,3.8543,3.8541,3.8544,3.8543,3.8534,3.8534,3.8533,3.8541,3.8528,3.8528,3.8528,3.8542,3.8543,3.8543,0,0,0,0,0,0,3.8567,3.8566,3.8562,3.8562,3.8561,3.8553,3.8553,3.8551,3.855,3.8542,3.854,3.8545,3.8534,3.8533,3.8535,3.8541,3.8528,3.8528,3.8542,3.8542,3.8543,3.8558,0,0,0,0,0,0,3.8567,3.8566,3.8569,3.8562,3.8561,3.8564,3.8553,3.8551,3.855,3.8549,3.8542,3.854,3.8533,3.8536,3.8535,3.8541,3.8528,3.8541,3.8542,3.8543,3.8557,3.856,3.8561,0,0,0,0,0,3.8567,3.8573,3.8569,3.8569,3.8565,3.8565,3.8564,3.8556,3.8551,3.8554,3.8548,3.8541,3.8541,3.8536,3.8536,3.8541,3.8541,3.8542,3.8543,3.8557,3.8559,3.8561,0,0,0,0,0,0,3.858,3.8572,3.8568,3.8572,3.8569,3.8562,3.8565,3.8559,3.8557,3.8556,3.8546,3.8545,3.8549,3.8545,3.854,3.8548,3.854,3.854,3.855,3.8553,3.8555,3.8555,3.8528,0,0,0,0,0,3.8584,3.8585,3.8578,3.8582,3.8581,3.8574,3.8573,3.8568,3.8564,3.8563,3.8557,3.8554,3.8553,3.8553,3.8551,3.8557,3.8555,3.8561,3.8563,3.8564,3.8565,3.8568,3.857,3.8546,3.8546,3.8546,0,0,3.859,3.8586,3.8587,3.8585,3.8582,3.8583,3.8573,3.8574,3.8575,3.8563,3.8565,3.8561,3.8557,3.8561,3.8562,3.8558,3.8572,3.8566,3.8567,3.8567,3.8569,3.8572,3.8574,3.8547,3.8547,3.8547,0,0,3.8604,3.8601,3.8605,3.8602,3.8599,3.8594,3.8595,3.8589,3.8586,3.8589,3.858,3.8581,3.8579,3.8577,3.8575,3.8589,3.8582,3.8589,3.8599,3.8602,3.8604,3.8606,3.8611,3.8613,3.859,3.859,3.859,0,3.8613,3.8614,3.8607,3.861,3.8609,3.8599,3.8603,3.8601,3.8597,3.8596,3.8592,3.8591,3.8587,3.8591,3.8594,3.8593,3.8594,3.8589,3.8605,3.8606,3.8608,3.8612,3.8614,3.8591,3.8591,3.8591,3.859,0,3.8626,3.8627,3.8631,3.8628,3.8627,3.863,3.8624,3.8624,3.862,3.8615,3.8618,3.8613,3.8611,3.8612,3.8607,3.8615,3.8613,3.8607,3.8598,3.8611,3.8615,3.8617,3.8592,3.8592,3.8591,3.8591,0,0,3.8645,3.864,3.8641,3.864,3.8636,3.8637,3.864,3.8639,3.8639,3.8637,3.8639,3.8639,3.8634,3.8632,3.8627,3.863,3.8642,3.8623,3.8623,3.8627,3.8651,3.8656,3.8658,3.8637,3.8638,3.8638,3.8652,0,3.8658,3.8663,3.8657,3.8663,3.8665,3.8656,3.8659,3.8657,3.8653,3.8654,3.8649,3.865,3.8642,3.8642,3.8644,3.864,3.8646,3.8639,3.8639,3.8639,3.864,3.866,3.8665,3.8678,3.8653,3.8653,3.8654,0,3.8672,3.8672,3.8678,3.8675,3.8675,3.8678,3.8677,3.8677,3.8675,3.8672,3.8671,3.8665,3.8668,3.866,3.8663,3.8658,3.8658,3.8656,3.8656,3.8656,3.8647,3.866,3.8682,3.8684,3.8656,3.8656,3.8656,0,3.8686,3.8687,3.8691,3.8691,3.8687,3.8689,3.8687,3.8684,3.8684,3.8683,3.8683,3.8683,3.8682,3.8682,3.8676,3.867,3.868,3.8671,3.8678,3.8678,3.8679,3.8679,3.8701,3.868,3.868,3.868,3.868,0,3.87,3.8704,3.8698,3.87,3.8705,3.8699,3.8704,3.8701,3.8699,3.8701,3.8694,3.8695,3.8688,3.8689,3.8684,3.8688,3.8687,3.8685,3.8684,3.8686,3.8686,3.8685,3.8684,3.8681,3.868,3.868,3.868,0,3.8716,3.8712,3.8716,3.8712,3.8712,3.8715,3.8712,3.8714,3.8711,3.8713,3.8714,3.8708,3.8709,3.8703,3.8703,3.87,3.8706,3.8703,3.8707,3.8706,3.8713,3.8712,3.8735,3.8737,3.8714,3.8715,3.8715,0,3.8725,3.8728,3.8725,3.8727,3.8726,3.8727,3.8728,3.8722,3.8723,3.8721,3.8724,3.8724,3.8724,3.8726,3.8722,3.8722,3.8719,3.8727,3.8719,3.8721,3.8719,3.8719,3.8719,3.8728,3.8729,3.8729,3.8729,0,3.8741,3.8739,3.8741,3.8741,3.8742,3.8743,3.8742,3.8743,3.8737,3.8739,3.874,3.874,3.8741,3.8741,3.8741,3.8739,3.8733,3.8732,3.8733,3.8735,3.8737,3.8736,3.8711,3.8731,3.8731,3.8731,3.8731,3.873,3.8754,3.8757,3.8756,3.8757,3.8757,3.8757,3.8759,3.8757,3.8758,3.8758,3.8755,3.8757,3.8756,3.8754,3.8753,3.8755,3.8751,3.8753,3.8753,3.8754,3.8755,3.8737,3.8754,3.8754,3.8754,3.8754,3.8754,0,3.877,3.8769,3.8771,3.8771,3.8773,3.8769,3.8768,3.877,3.8772,3.8771,3.8772,3.8774,3.8775,3.8772,3.8772,3.8774,3.8772,3.8774,3.8774,3.8774,3.8758,3.8757,3.8777,3.8777,3.8777,3.8777,3.8777,3.8777,3.8778,3.8783,3.8782,3.8786,3.8785,3.8788,3.8789,3.8789,3.8788,3.8791,3.8792,3.879,3.8789,3.8789,3.879,3.8789,3.8789,3.8793,3.8791,3.8777,3.8775,3.8773,3.8771,3.8793,3.8794,3.8806,3.8807,3.8807]}]]